Weather in Psykod

Russia / The Kabardino-Balkar Republic     43°36′00″N   43°59′43″E
temp.,
°C
wind,
m/s
gust,
m/s
humid.,
%
clouds,
%
prec.,
mm/h
press.,
hPa
HPBL,
m
2 july, sat
sat200:00+18wsw34844 0.1 101055
03:00+17sw228071 0.1 101015
06:00+19sw1171100 0.0 101012
09:00+20wnw1171100 0.1 101113
12:00+21n2561100 0.1 1012651
15:00+17ssw5693100 3.1 1012183
18:00+18s4579100 5.2 101364
21:00+16wsw3372100 5.4 101631
3 july, sun
sun300:00+14sw33774 0.0 101629
03:00+12ssw34790 0.0 101547
06:00+15ssw23750 0.0 101583
09:00+21nw57440 0.0 10151453
12:00+25nw57370 0.0 10142284
15:00+25nnw663892 0.0 10132456
18:00+21wsw3454100 0.0 101473
21:00+19sw465631 0.0 1016106
4 july, mon
mon400:00+16sw34665 0.0 101647
03:00+15sw336614 0.0 101533
06:00+17ssw11642 0.0 101645
09:00+24ene11421 0.0 1016842
12:00+27nw12331 0.0 10152375
15:00+28w23303 0.0 10132535
18:00+26wnw234229 0.0 1014176
21:00+22wsw235262 0.0 101539
5 july, tue
tue500:00+20sw115518 0.0 101514
03:00+17ssw22620 0.0 101518
06:00+19ssw22610 0.0 101659
09:00+25n12440 0.0 1015745
12:00+29nw12350 0.0 10152304
15:00+30s243031 0.0 10132783
18:00+26ene114986 0.0 101449
21:00+23se245282 0.0 101575
6 july, wed
wed600:00+19ssw116821 0.0 101611
03:00+17wsw12750 0.0 101612
06:00+19sw11700 0.0 101774
09:00+25e34460 0.0 1016915
12:00+29ese44340 0.0 10152323
15:00+30se45303 0.0 10142600
18:00+29ese243872 0.0 1014329
21:00+21ese59550 0.0 1016298